Bloomington, IN

1:08 PM EST on December 06, 2019 (GMT -0500)
Monroe County

Weather History for KBMG - August, 2019

Change the Weather History Date:

Wednesday, August 7, 2019

  Actual Average Record
Temperature  
Mean Temperature 76 °F 74 °F  
Max Temperature 85 °F 85 °F 97 °F (2012)
Min Temperature 66 °F 63 °F 48 °F (2004)
Degree Days  
Heating Degree Days 0 0  
Month to date heating degree days 0 0  
Since 1 June heating degree days 14 17  
Since 1 July heating degree days 0 2  
Cooling Degree Days 11 9  
Month to date cooling degree days 63 63  
Year to date cooling degree days 770 629  
Since 1 June cooling degree days 639 547  
Growing Degree Days 26 (Base 50)    
Moisture  
Dew Point 69 °F    
Average Humidity 78    
Maximum Humidity 100    
Minimum Humidity 55    
Precipitation  
Precipitation 0.00 in 0.11 in 1.69 in (2000)
Month to date precipitation 0.33 0.81  
Year to date precipitation 32.37 30.48  
Sea Level Pressure  
Sea Level Pressure 29.86 in    
Wind  
Wind Speed 2 mph (WSW)    
Max Wind Speed 9 mph    
Max Gust Speed 14 mph    
Visibility 7 miles    
Events Fog , Rain    
T = Trace of Precipitation, MM = Missing Value Source: NWS Daily Summary

Daily Weather History Graph

Daily Weather History Graph

Search for Another Location

Airport or City:

Astronomy

Aug. 07, 2019 Rise Set
Actual Time 6:52 AM EDT 8:51 PM EDT
Civil Twilight 6:22 AM EDT 9:21 PM EDT
Nautical Twilight 5:47 AM EDT 9:56 PM EDT
Astronomical Twilight 5:08 AM EDT 10:35 PM EDT
Moon 2:20 PM EDT (8/7) 12:40 AM EDT (8/7)
Length of Visible Light 14h 58m
Length of Day
13h 59m
Waxing Crescent, 49% of the Moon is Illuminated
Aug 7
Waxing Crescent
Aug 7
First Quarter
Aug 15
Full
Aug 23
Last Quarter
Aug 30
New

Hourly Weather History & Observations

Time (EDT) Temp. Heat Index Dew Point Humidity Pressure Visibility Wind Dir Wind Speed Gust Speed Precip Events Conditions
12:04 AM 71.1 °F - 71.1 °F 100% 29.84 in 8.0 mi SSE 3.5 mph - N/A   Overcast
12:53 AM 70.0 °F - 70.0 °F 100% 29.83 in 7.0 mi SW 4.6 mph - 0.00 in Rain Light Rain
1:53 AM 69.1 °F - 69.1 °F 100% 29.82 in 10.0 mi Calm Calm - 0.00 in   Scattered Clouds
2:53 AM 69.1 °F - 69.1 °F 100% 29.83 in 10.0 mi SW 3.5 mph - N/A   Overcast
3:31 AM 69.1 °F - 69.1 °F 100% 29.85 in 8.0 mi West 4.6 mph - N/A   Scattered Clouds
3:53 AM 68.0 °F - 68.0 °F 100% 29.83 in 7.0 mi West 4.6 mph - N/A   Partly Cloudy
4:33 AM 68.0 °F - 68.0 °F 100% 29.85 in 5.0 mi Calm Calm - N/A   Mostly Cloudy
4:53 AM 68.0 °F - 68.0 °F 100% 29.83 in 5.0 mi Calm Calm - N/A   Overcast
5:13 AM 68.0 °F - 68.0 °F 100% 29.86 in 1.8 mi SSW 4.6 mph - N/A   Overcast
5:22 AM 68.0 °F - 68.0 °F 100% 29.86 in 0.2 mi Calm Calm - N/A Fog Fog
5:53 AM 68.0 °F - 68.0 °F 100% 29.85 in 0.2 mi Calm Calm - N/A Fog Fog
6:53 AM 68.0 °F - 68.0 °F 100% 29.86 in 0.2 mi Calm Calm - N/A Fog Fog
8:53 AM 68.0 °F - 68.0 °F 100% 29.88 in 0.2 mi West 4.6 mph - N/A Fog Fog
9:35 AM 69.1 °F - 69.1 °F 100% 29.90 in 0.8 mi Calm Calm - N/A   Overcast
9:46 AM 70.0 °F - 70.0 °F 100% 29.90 in 1.5 mi Calm Calm - N/A   Overcast
9:51 AM 69.8 °F - 69.8 °F 100% 29.90 in 3.0 mi Calm Calm - N/A   Overcast
9:53 AM 70.0 °F - 70.0 °F 100% 29.88 in 2.5 mi Calm Calm - N/A   Overcast
10:29 AM 72.0 °F - 72.0 °F 100% 29.90 in 10.0 mi Calm Calm - N/A   Overcast
10:53 AM 72.0 °F - 72.0 °F 100% 29.88 in 10.0 mi Variable 3.5 mph - N/A   Mostly Cloudy
11:09 AM 75.9 °F - 73.0 °F 91% 29.91 in 10.0 mi Calm Calm - N/A   Partly Cloudy
11:53 AM 79.0 °F - 70.0 °F 74% 29.89 in 10.0 mi Variable 3.5 mph - N/A   Clear
12:53 PM 81.0 °F 84.1 °F 69.1 °F 67% 29.88 in 10.0 mi West 4.6 mph - N/A   Partly Cloudy
1:53 PM 82.0 °F 84.1 °F 66.0 °F 58% 29.88 in 10.0 mi Variable 4.6 mph - N/A   Partly Cloudy
2:53 PM 82.9 °F 85.0 °F 66.0 °F 56% 29.86 in 10.0 mi West 5.8 mph - N/A   Partly Cloudy
3:53 PM 84.0 °F 86.3 °F 66.0 °F 55% 29.85 in 10.0 mi Variable 4.6 mph - N/A   Partly Cloudy
4:53 PM 84.0 °F 86.5 °F 66.9 °F 56% 29.85 in 10.0 mi WNW 3.5 mph - N/A   Clear
5:53 PM 81.0 °F 83.3 °F 66.9 °F 62% 29.84 in 10.0 mi Calm Calm - N/A   Mostly Cloudy
6:53 PM 82.9 °F 86.5 °F 69.1 °F 63% 29.83 in 10.0 mi West 4.6 mph - N/A   Scattered Clouds
7:53 PM 80.1 °F 82.7 °F 68.0 °F 67% 29.83 in 10.0 mi West 3.5 mph - N/A   Clear
8:53 PM 72.0 °F - 69.1 °F 91% 29.83 in 10.0 mi Calm Calm - N/A   Clear
9:53 PM 70.0 °F - 68.0 °F 93% 29.85 in 10.0 mi Calm Calm - N/A   Clear
10:53 PM 69.1 °F - 68.0 °F 96% 29.86 in 10.0 mi Calm Calm - N/A   Clear
11:53 PM 68.0 °F - 66.9 °F 96% 29.86 in 10.0 mi Calm Calm - N/A   Clear